| time (UTC) | temp C | wind direction | speed KPH | gust KPH | rain 1hr cm | rain 24hr cm | rain mn cm | humidity % | barometer mb |
| 20260831193348 | 20 | 112 | 1.6 | 3.2 | 0.13 | 3.28 | 3.28 | 92 | 1019.0 |
| 20260831192843 | 20 | 126 | 1.6 | 1.6 | 0.30 | 3.28 | 3.28 | 92 | 1019.0 |
| 20260831192338 | 20 | 128 | 1.6 | 1.6 | 0.61 | 3.25 | 3.25 | 92 | 1018.9 |
| 20260831191834 | 20 | 129 | 0.0 | 0.0 | 1.37 | 3.23 | 3.23 | 92 | 1019.2 |
| 20260831191330 | 20 | 181 | 0.0 | 0.0 | 1.07 | 3.15 | 3.15 | 91 | 1018.9 |
| 20260831190826 | 20 | 208 | 1.6 | 1.6 | 0.13 | 3.00 | 3.00 | 92 | 1019.0 |
| 20260831190325 | 20 | 225 | 6.4 | 8.0 | 0.18 | 2.97 | 2.97 | 93 | 1019.3 |
| 20260831185825 | 20 | 31 | 0.0 | 1.6 | 0.61 | 2.97 | 2.97 | 93 | 1018.9 |
| 20260831185320 | 20 | 82 | 3.2 | 3.2 | 1.32 | 2.95 | 2.95 | 93 | 1018.4 |
| 20260831184819 | 20 | 50 | 4.8 | 4.8 | 1.98 | 2.87 | 2.87 | 93 | 1018.8 |
| 20260831184315 | 20 | 35 | 1.6 | 1.6 | 2.87 | 2.69 | 2.69 | 93 | 1019.2 |
| 20260831183810 | 20 | 304 | 4.8 | 3.2 | 4.37 | 2.51 | 2.51 | 92 | 1019.2 |
| 20260831183310 | 20 | 275 | 1.6 | 1.6 | 6.25 | 2.24 | 2.24 | 92 | 1019.1 |
| 20260831182809 | 20 | 282 | 4.8 | 8.0 | 4.27 | 1.70 | 1.70 | 90 | 1019.3 |
| 20260831182305 | 21 | 257 | 4.8 | 8.0 | 0.79 | 1.12 | 1.12 | 85 | 1019.1 |
| 20260831181759 | 21 | 277 | 17.7 | 24.1 | 0.00 | 0.99 | 0.99 | 82 | 1019.1 |
| 20260831181254 | 21 | 282 | 14.5 | 17.7 | 0.00 | 0.99 | 0.99 | 82 | 1018.5 |
| 20260831180749 | 21 | 279 | 8.0 | 11.3 | 0.00 | 0.99 | 0.99 | 82 | 1017.6 |
| 20260831180244 | 21 | 282 | 14.5 | 20.9 | 0.00 | 0.99 | 0.99 | 81 | 1017.6 |
| 20260831175743 | 21 | 286 | 4.8 | 8.0 | 0.00 | 0.99 | 0.99 | 81 | 1018.1 |
| 20260831175240 | 22 | 284 | 8.0 | 11.3 | 0.00 | 0.99 | 0.99 | 80 | 1018.2 |
| 20260831174735 | 22 | 287 | 16.1 | 25.7 | 0.00 | 0.99 | 0.99 | 78 | 1017.9 |
| 20260831174231 | 22 | 321 | 11.3 | 16.1 | 0.00 | 0.99 | 0.99 | 76 | 1018.1 |
| 20260831173729 | 22 | 341 | 8.0 | 12.9 | 0.00 | 0.99 | 0.99 | 76 | 1018.1 |
| 20260831173224 | 22 | 266 | 11.3 | 12.9 | 0.00 | 0.99 | 0.99 | 76 | 1018.1 |
| 20260831172719 | 23 | 306 | 8.0 | 11.3 | 0.00 | 0.99 | 0.99 | 75 | 1017.8 |
| 20260831172214 | 23 | 276 | 6.4 | 8.0 | 0.00 | 0.99 | 0.99 | 75 | 1017.7 |
| 20260831171708 | 23 | 51 | 12.9 | 20.9 | 0.00 | 0.99 | 0.99 | 73 | 1017.9 |
| 20260831171206 | 23 | 310 | 6.4 | 8.0 | 0.00 | 0.99 | 0.99 | 74 | 1017.8 |
| 20260831170702 | 25 | 298 | 8.0 | 14.5 | 0.00 | 0.99 | 0.99 | 69 | 1017.7 |
| 20260831170158 | 25 | 303 | 4.8 | 4.8 | 0.00 | 0.99 | 0.99 | 64 | 1017.5 |
| 20260831165654 | 25 | 305 | 3.2 | 4.8 | 0.00 | 0.99 | 0.99 | 66 | 1017.6 |
| 20260831165150 | 25 | 316 | 3.2 | 4.8 | 0.00 | 0.99 | 0.99 | 69 | 1017.4 |
| 20260831164646 | 25 | 300 | 11.3 | 12.9 | 0.00 | 0.99 | 0.99 | 70 | 1017.1 |
| 20260831164142 | 25 | 285 | 8.0 | 9.7 | 0.00 | 0.99 | 0.99 | 70 | 1017.4 |
| 20260831163637 | 25 | 293 | 6.4 | 8.0 | 0.00 | 0.99 | 0.99 | 70 | 1017.0 |
| 20260831163133 | 25 | 288 | 4.8 | 4.8 | 0.00 | 0.99 | 0.99 | 70 | 1017.0 |
| 20260831162632 | 25 | 299 | 6.4 | 11.3 | 0.00 | 0.99 | 0.99 | 69 | 1016.9 |
| 20260831162130 | 26 | 293 | 8.0 | 11.3 | 0.00 | 0.99 | 0.99 | 67 | 1016.3 |
| 20260831161626 | 26 | 330 | 6.4 | 9.7 | 0.00 | 0.99 | 0.99 | 62 | 1016.3 |
| 20260831161122 | 27 | 253 | 3.2 | 3.2 | 0.00 | 0.99 | 0.99 | 61 | 1016.4 |
| 20260831160621 | 27 | 227 | 3.2 | 3.2 | 0.00 | 0.99 | 0.99 | 59 | 1016.2 |
| 20260831160117 | 27 | 106 | 1.6 | 3.2 | 0.00 | 0.99 | 0.99 | 56 | 1015.9 |
| 20260831155611 | 26 | 152 | 3.2 | 3.2 | 0.00 | 0.99 | 0.99 | 61 | 1016.0 |
| 20260831155106 | 26 | 156 | 3.2 | 4.8 | 0.00 | 0.99 | 0.99 | 61 | 1015.9 |
| 20260831154602 | 26 | 129 | 1.6 | 1.6 | 0.00 | 0.99 | 0.99 | 65 | 1015.9 |
| 20260831154102 | 26 | 150 | 3.2 | 3.2 | 0.00 | 0.99 | 0.99 | 66 | 1015.7 |
| 20260831153601 | 25 | 182 | 1.6 | 1.6 | 0.00 | 0.99 | 0.99 | 68 | 1015.9 |
| 20260831153058 | 25 | 197 | 8.0 | 9.7 | 0.00 | 0.99 | 0.99 | 69 | 1016.0 |
| 20260831152553 | 25 | 220 | 8.0 | 9.7 | 0.00 | 0.99 | 0.99 | 69 | 1016.1 |
| 20260831152049 | 25 | 228 | 8.0 | 9.7 | 0.00 | 0.99 | 0.99 | 72 | 1016.2 |
| 20260831151548 | 25 | 131 | 4.8 | 4.8 | 0.00 | 0.99 | 0.99 | 75 | 1016.1 |
| 20260831151043 | 24 | 151 | 3.2 | 4.8 | 0.00 | 0.99 | 0.99 | 76 | 1016.1 |
| 20260831150538 | 24 | 188 | 4.8 | 8.0 | 0.00 | 0.99 | 0.99 | 76 | 1016.1 |
| 20260831150034 | 24 | 153 | 1.6 | 3.2 | 0.00 | 0.99 | 0.99 | 77 | 1015.9 |
| 20260831145528 | 23 | 176 | 3.2 | 4.8 | 0.00 | 0.99 | 0.99 | 78 | 1015.7 |
| 20260831145025 | 23 | 181 | 4.8 | 8.0 | 0.00 | 0.99 | 0.99 | 78 | 1015.5 |
| 20260831144520 | 23 | 144 | 3.2 | 3.2 | 0.00 | 0.99 | 0.99 | 79 | 1015.6 |
| 20260831144015 | 23 | 143 | 4.8 | 8.0 | 0.00 | 0.99 | 0.99 | 80 | 1015.3 |
| 20260831143509 | 23 | 202 | 3.2 | 4.8 | 0.00 | 0.99 | 0.99 | 83 | 1015.6 |
| 20260831143005 | 22 | 134 | 3.2 | 3.2 | 0.00 | 0.99 | 0.99 | 85 | 1015.3 |
| 20260831142502 | 22 | 177 | 0.0 | 0.0 | 0.00 | 0.99 | 0.99 | 87 | 1015.2 |
| 20260831141956 | 22 | 147 | 0.0 | 0.0 | 0.00 | 0.99 | 0.99 | 88 | 1015.4 |
| 20260831141449 | 22 | 162 | 4.8 | 8.0 | 0.00 | 0.99 | 0.99 | 87 | 1015.3 |
| 20260831140944 | 22 | 141 | 4.8 | 4.8 | 0.00 | 0.99 | 0.99 | 86 | 1015.2 |
| 20260831140439 | 21 | 126 | 1.6 | 3.2 | 0.00 | 0.99 | 0.99 | 88 | 1015.2 |
| 20260831135938 | 21 | 113 | 1.6 | 1.6 | 0.00 | 0.99 | 0.99 | 89 | 1015.5 |
| 20260831135437 | 21 | 135 | 3.2 | 4.8 | 0.00 | 0.99 | 0.99 | 89 | 1015.3 |
| 20260831134932 | 21 | 100 | 3.2 | 3.2 | 0.00 | 0.99 | 0.99 | 89 | 1015.2 |
| 20260831134429 | 21 | 85 | 1.6 | 1.6 | 0.00 | 0.99 | 0.99 | 89 | 1015.2 |
| 20260831133928 | 21 | 86 | 3.2 | 3.2 | 0.00 | 0.99 | 0.99 | 89 | 1015.0 |
| 20260831133423 | 21 | 90 | 1.6 | 1.6 | 0.00 | 0.99 | 0.99 | 90 | 1015.3 |
| 20260831132918 | 21 | 158 | 1.6 | 1.6 | 0.00 | 0.99 | 0.99 | 91 | 1015.4 |
| 20260831132414 | 21 | 200 | 3.2 | 3.2 | 0.00 | 0.99 | 0.99 | 91 | 1015.4 |
| 20260831131913 | 21 | 112 | 0.0 | 0.0 | 0.00 | 0.99 | 0.99 | 90 | 1015.2 |
| 20260831131408 | 20 | 112 | 1.6 | 0.0 | 0.00 | 0.99 | 0.99 | 90 | 1015.3 |
| 20260831130904 | 20 | 112 | 1.6 | 1.6 | 0.00 | 0.99 | 0.99 | 90 | 1015.3 |
| 20260831130359 | 20 | 57 | 0.0 | 0.0 | 0.00 | 0.99 | 0.99 | 89 | 1015.2 |
| 20260831125858 | 20 | 3 | 8.0 | 9.7 | 0.18 | 0.99 | 0.99 | 89 | 1015.2 |
| 20260831125353 | 20 | 15 | 1.6 | 1.6 | 0.18 | 0.99 | 0.99 | 91 | 1015.6 |
| 20260831124848 | 20 | 356 | 6.4 | 8.0 | 0.13 | 0.97 | 0.97 | 92 | 1015.8 |
| 20260831124344 | 20 | 9 | 1.6 | 1.6 | 0.43 | 0.97 | 0.97 | 92 | 1016.0 |
| 20260831123839 | 20 | 265 | 4.8 | 3.2 | 1.68 | 0.94 | 0.94 | 91 | 1016.2 |
| 20260831123338 | 20 | 7 | 6.4 | 11.3 | 3.96 | 0.89 | 0.89 | 90 | 1015.9 |
| 20260831122833 | 20 | 12 | 9.7 | 16.1 | 2.87 | 0.66 | 0.66 | 89 | 1016.1 |
| 20260831122329 | 21 | 2 | 8.0 | 11.3 | 0.43 | 0.25 | 0.25 | 88 | 1016.2 |
| 20260831121828 | 21 | 306 | 6.4 | 9.7 | 0.18 | 0.18 | 0.18 | 87 | 1016.3 |
| 20260831121324 | 21 | 295 | 6.4 | 9.7 | 0.18 | 0.18 | 0.18 | 87 | 1015.8 |
| 20260831120820 | 21 | 294 | 6.4 | 9.7 | 0.00 | 0.15 | 0.15 | 87 | 1016.3 |
| 20260831120314 | 21 | 293 | 8.0 | 9.7 | 0.00 | 0.15 | 0.15 | 87 | 1015.8 |
| 20260831115809 | 21 | 283 | 4.8 | 8.0 | 0.00 | 0.15 | 0.15 | 87 | 1015.5 |
| 20260831115306 | 21 | 295 | 1.6 | 3.2 | 0.00 | 0.15 | 0.15 | 87 | 1015.9 |
| 20260831114805 | 21 | 16 | 8.0 | 11.3 | 0.48 | 0.15 | 0.15 | 85 | 1015.7 |
| 20260831114304 | 21 | 289 | 11.3 | 14.5 | 0.89 | 0.15 | 0.15 | 84 | 1015.6 |
| 20260831113800 | 23 | 303 | 4.8 | 4.8 | 0.43 | 0.08 | 0.08 | 79 | 1015.5 |
| 20260831113259 | 25 | 265 | 6.4 | 11.3 | 0.00 | 0.00 | 0.00 | 69 | 1015.2 |
| 20260831112754 | 25 | 284 | 8.0 | 12.9 | 0.00 | 0.00 | 0.00 | 62 | 1015.0 |
| 20260831112249 | 25 | 245 | 3.2 | 3.2 | 0.00 | 0.00 | 0.00 | 61 | 1014.6 |
| 20260831111744 | 26 | 265 | 4.8 | 4.8 | 0.00 | 0.00 | 0.00 | 61 | 1014.3 |
| 20260831111241 | 28 | 291 | 16.1 | 22.5 | 0.00 | 0.00 | 0.00 | 54 | 1014.2 |
| 20260831110737 | 27 | 135 | 1.6 | 1.6 | 0.00 | 0.00 | 0.00 | 48 | 1013.6 |
| 20260831110231 | 27 | 134 | 1.6 | 1.6 | 0.00 | 0.00 | 0.00 | 48 | 1013.3 |
| 20260831105730 | 27 | 128 | 0.0 | 0.0 | 0.00 | 0.00 | 0.00 | 49 | 1013.4 |
| 20260831105226 | 27 | 128 | 0.0 | 0.0 | 0.00 | 0.00 | 0.00 | 48 | 1013.2 |
| 20260831104720 | 27 | 128 | 0.0 | 0.0 | 0.00 | 0.00 | 0.00 | 48 | 1012.8 |
| 20260831104218 | 27 | 128 | 0.0 | 0.0 | 0.00 | 0.00 | 0.00 | 48 | 1012.8 |
| 20260831103717 | 27 | 126 | 0.0 | 0.0 | 0.00 | 0.00 | 0.00 | 48 | 1012.9 |
| 20260831103213 | 27 | 121 | 0.0 | 0.0 | 0.00 | 0.00 | 0.00 | 49 | 1012.7 |
| 20260831102712 | 27 | 82 | 0.0 | 0.0 | 0.00 | 0.00 | 0.00 | 50 | 1012.8 |
| 20260831102207 | 27 | 82 | 1.6 | 1.6 | 0.00 | 0.00 | 0.00 | 50 | 1012.9 |
| 20260831101703 | 27 | 82 | 0.0 | 0.0 | 0.00 | 0.00 | 0.00 | 52 | 1012.7 |
| 20260831101158 | 27 | 82 | 1.6 | 1.6 | 0.00 | 0.00 | 0.00 | 52 | 1013.0 |
| 20260831100654 | 27 | 81 | 0.0 | 0.0 | 0.00 | 0.00 | 0.00 | 52 | 1013.0 |
| 20260831100150 | 27 | 81 | 1.6 | 1.6 | 0.00 | 0.00 | 0.00 | 53 | 1012.9 |
| 20260831095648 | 27 | 81 | 1.6 | 1.6 | 0.00 | 0.00 | 0.00 | 53 | 1012.7 |
| 20260831095143 | 27 | 83 | 0.0 | 1.6 | 0.00 | 0.00 | 0.00 | 51 | 1012.6 |
| 20260831094638 | 27 | 61 | 0.0 | 0.0 | 0.00 | 0.00 | 0.00 | 51 | 1012.6 |
| 20260831094135 | 27 | 61 | 0.0 | 0.0 | 0.00 | 0.00 | 0.00 | 51 | 1012.7 |
| 20260831093630 | 27 | 61 | 0.0 | 0.0 | 0.00 | 0.00 | 0.00 | 51 | 1012.6 |
| 20260831093126 | 27 | 61 | 0.0 | 0.0 | 0.00 | 0.00 | 0.00 | 50 | 1012.8 |
| 20260831092622 | 27 | 47 | 0.0 | 0.0 | 0.00 | 0.00 | 0.00 | 50 | 1012.5 |
| 20260831092117 | 27 | 47 | 0.0 | 0.0 | 0.00 | 0.00 | 0.00 | 50 | 1012.4 |
| 20260831091616 | 27 | 46 | 0.0 | 0.0 | 0.00 | 0.00 | 0.00 | 51 | 1012.5 |
| 20260831091112 | 27 | 46 | 0.0 | 0.0 | 0.00 | 0.00 | 0.00 | 51 | 1012.5 |
| 20260831090608 | 27 | 46 | 0.0 | 0.0 | 0.00 | 0.00 | 0.00 | 50 | 1012.5 |
| 20260831090104 | 27 | 46 | 0.0 | 0.0 | 0.00 | 0.00 | 0.00 | 50 | 1012.8 |
| 20260831085559 | 27 | 327 | 0.0 | 0.0 | 0.00 | 0.00 | 0.00 | 50 | 1012.7 |
| 20260831085054 | 27 | 327 | 0.0 | 0.0 | 0.00 | 0.00 | 0.00 | 50 | 1012.7 |
| 20260831084550 | 27 | 327 | 0.0 | 0.0 | 0.00 | 0.00 | 0.00 | 50 | 1012.5 |
| 20260831084046 | 27 | 327 | 0.0 | 0.0 | 0.00 | 0.00 | 0.00 | 51 | 1012.7 |
| 20260831083542 | 27 | 326 | 0.0 | 0.0 | 0.00 | 0.00 | 0.00 | 50 | 1012.5 |
| 20260831083036 | 28 | 327 | 0.0 | 0.0 | 0.00 | 0.00 | 0.00 | 49 | 1012.7 |
| 20260831082530 | 28 | 327 | 0.0 | 0.0 | 0.00 | 0.00 | 0.00 | 48 | 1012.5 |
| 20260831082025 | 28 | 327 | 0.0 | 0.0 | 0.00 | 0.00 | 0.00 | 48 | 1012.7 |
| 20260831081521 | 28 | 327 | 0.0 | 0.0 | 0.00 | 0.00 | 0.00 | 47 | 1012.8 |
| 20260831081016 | 28 | 327 | 0.0 | 0.0 | 0.00 | 0.00 | 0.00 | 47 | 1012.9 |
| 20260831080510 | 28 | 327 | 0.0 | 0.0 | 0.00 | 0.00 | 0.00 | 46 | 1012.7 |
| 20260831080006 | 28 | 327 | 0.0 | 0.0 | 0.00 | 0.00 | 0.00 | 46 | 1012.9 |
| 20260831075501 | 28 | 326 | 0.0 | 0.0 | 0.00 | 0.00 | 0.00 | 47 | 1012.8 |
| 20260831074957 | 28 | 326 | 0.0 | 0.0 | 0.00 | 0.00 | 0.00 | 47 | 1013.0 |
| 20260831074456 | 28 | 326 | 0.0 | 0.0 | 0.00 | 0.00 | 0.00 | 46 | 1012.9 |
| 20260831073951 | 29 | 326 | 0.0 | 0.0 | 0.00 | 0.00 | 0.00 | 46 | 1012.9 |
| 20260831073450 | 29 | 326 | 0.0 | 0.0 | 0.00 | 0.00 | 0.00 | 45 | 1013.0 |
| 20260831072949 | 29 | 254 | 0.0 | 0.0 | 0.00 | 0.00 | 0.00 | 45 | 1012.8 |
| 20260831072446 | 30 | 254 | 0.0 | 0.0 | 0.00 | 0.00 | 0.00 | 44 | 1013.0 |
| 20260831071942 | 30 | 254 | 0.0 | 0.0 | 0.00 | 0.00 | 0.00 | 44 | 1013.1 |
| 20260831071441 | 30 | 253 | 0.0 | 0.0 | 0.00 | 0.00 | 0.00 | 44 | 1013.0 |
| 20260831070936 | 30 | 251 | 0.0 | 0.0 | 0.00 | 0.00 | 0.00 | 43 | 1013.0 |
| 20260831070435 | 30 | 236 | 1.6 | 1.6 | 0.00 | 0.00 | 0.00 | 43 | 1013.2 |
| 20260831065935 | 30 | 229 | 1.6 | 1.6 | 0.00 | 0.00 | 0.00 | 43 | 1013.2 |
| 20260831065433 | 30 | 254 | 0.0 | 0.0 | 0.00 | 0.00 | 0.00 | 44 | 1013.0 |
| 20260831064928 | 30 | 281 | 1.6 | 1.6 | 0.00 | 0.00 | 0.00 | 43 | 1013.2 |
| 20260831064423 | 30 | 291 | 0.0 | 0.0 | 0.00 | 0.00 | 0.00 | 43 | 1013.2 |
| 20260831063919 | 30 | 291 | 1.6 | 0.0 | 0.00 | 0.00 | 0.00 | 43 | 1013.0 |
| 20260831063414 | 30 | 291 | 0.0 | 0.0 | 0.00 | 0.00 | 0.00 | 44 | 1013.1 |
| 20260831062908 | 30 | 291 | 0.0 | 0.0 | 0.00 | 0.00 | 0.00 | 43 | 1013.1 |
| 20260831062403 | 30 | 292 | 0.0 | 0.0 | 0.00 | 0.00 | 0.00 | 43 | 1013.0 |
| 20260831061902 | 30 | 292 | 0.0 | 0.0 | 0.00 | 0.00 | 0.00 | 42 | 1013.3 |
| 20260831061401 | 30 | 289 | 0.0 | 0.0 | 0.00 | 0.00 | 0.00 | 42 | 1013.2 |
| 20260831060857 | 30 | 288 | 0.0 | 0.0 | 0.00 | 0.00 | 0.00 | 42 | 1013.3 |
| 20260831060352 | 30 | 288 | 0.0 | 1.6 | 0.00 | 0.00 | 0.00 | 42 | 1013.1 |
| 20260831055851 | 30 | 282 | 1.6 | 1.6 | 0.00 | 0.00 | 0.00 | 42 | 1013.4 |
| 20260831055346 | 30 | 282 | 1.6 | 1.6 | 0.00 | 0.00 | 0.00 | 42 | 1013.1 |
| 20260831054842 | 30 | 283 | 0.0 | 0.0 | 0.00 | 0.00 | 0.00 | 41 | 1013.2 |
| 20260831054337 | 30 | 281 | 1.6 | 3.2 | 0.00 | 0.00 | 0.00 | 41 | 1013.1 |
| 20260831053836 | 30 | 235 | 0.0 | 0.0 | 0.00 | 0.00 | 0.00 | 41 | 1013.0 |
| 20260831053334 | 31 | 267 | 1.6 | 1.6 | 0.00 | 0.00 | 0.00 | 40 | 1013.2 |
| 20260831052829 | 31 | 290 | 1.6 | 1.6 | 0.00 | 0.00 | 0.00 | 40 | 1013.1 |
| 20260831052329 | 31 | 285 | 0.0 | 0.0 | 0.00 | 0.00 | 0.00 | 40 | 1012.9 |
| 20260831051827 | 31 | 271 | 3.2 | 3.2 | 0.00 | 0.00 | 0.00 | 40 | 1012.8 |
| 20260831051325 | 31 | 282 | 3.2 | 3.2 | 0.00 | 0.00 | 0.00 | 40 | 1012.9 |
| 20260831050821 | 31 | 297 | 1.6 | 3.2 | 0.00 | 0.00 | 0.00 | 40 | 1012.7 |
| 20260831050319 | 31 | 10 | 1.6 | 1.6 | 0.00 | 0.00 | 0.00 | 40 | 1012.8 |
| 20260831045814 | 31 | 345 | 1.6 | 1.6 | 0.00 | 0.00 | 0.00 | 40 | 1012.7 |
| 20260831045308 | 31 | 291 | 1.6 | 3.2 | 0.00 | 0.00 | 0.00 | 39 | 1012.8 |
| 20260831044803 | 31 | 318 | 0.0 | 1.6 | 0.00 | 0.00 | 0.00 | 39 | 1012.7 |
| 20260831044258 | 31 | 301 | 3.2 | 3.2 | 0.00 | 0.00 | 0.00 | 39 | 1012.7 |
| 20260831043754 | 31 | 289 | 4.8 | 8.0 | 0.00 | 0.00 | 0.00 | 39 | 1012.8 |
| 20260831043254 | 31 | 345 | 1.6 | 3.2 | 0.00 | 0.00 | 0.00 | 39 | 1012.7 |
| 20260831042749 | 31 | 351 | 4.8 | 8.0 | 0.00 | 0.00 | 0.00 | 39 | 1012.7 |
| 20260831042243 | 31 | 231 | 1.6 | 3.2 | 0.00 | 0.00 | 0.00 | 39 | 1012.9 |
| 20260831041739 | 31 | 306 | 3.2 | 4.8 | 0.00 | 0.00 | 0.00 | 39 | 1012.8 |
| 20260831041238 | 31 | 292 | 6.4 | 9.7 | 0.00 | 0.00 | 0.00 | 39 | 1012.7 |
| 20260831040733 | 31 | 299 | 1.6 | 4.8 | 0.00 | 0.00 | 0.00 | 39 | 1012.5 |
| 20260831040232 | 31 | 18 | 1.6 | 1.6 | 0.00 | 0.00 | 0.00 | 38 | 1012.6 |
| 20260831035731 | 31 | 4 | 4.8 | 9.7 | 0.00 | 0.00 | 0.00 | 38 | 1012.2 |
| 20260831035230 | 31 | 322 | 1.6 | 1.6 | 0.00 | 0.00 | 0.00 | 38 | 1012.2 |
| 20260831034729 | 31 | 275 | 1.6 | 3.2 | 0.00 | 0.00 | 0.00 | 38 | 1012.4 |
| 20260831034225 | 31 | 359 | 6.4 | 9.7 | 0.00 | 0.00 | 0.00 | 38 | 1012.4 |
| 20260831033720 | 31 | 286 | 4.8 | 9.7 | 0.00 | 0.00 | 0.00 | 37 | 1011.9 |
| 20260831033220 | 32 | 302 | 6.4 | 9.7 | 0.00 | 0.00 | 0.00 | 37 | 1012.2 |
| 20260831032716 | 32 | 330 | 4.8 | 4.8 | 0.00 | 0.00 | 0.00 | 37 | 1012.1 |
| 20260831032211 | 32 | 285 | 6.4 | 9.7 | 0.00 | 0.00 | 0.00 | 37 | 1011.9 |
| 20260831031710 | 32 | 317 | 3.2 | 3.2 | 0.00 | 0.00 | 0.00 | 37 | 1011.7 |
| 20260831031205 | 32 | 279 | 1.6 | 3.2 | 0.00 | 0.00 | 0.00 | 37 | 1011.8 |
| 20260831030704 | 32 | 303 | 6.4 | 9.7 | 0.00 | 0.00 | 0.00 | 37 | 1011.6 |
| 20260831030203 | 32 | 323 | 4.8 | 4.8 | 0.00 | 0.00 | 0.00 | 36 | 1011.5 |
| 20260831025701 | 33 | 311 | 9.7 | 11.3 | 0.00 | 0.00 | 0.00 | 35 | 1011.3 |
| 20260831025156 | 33 | 13 | 9.7 | 11.3 | 0.00 | 0.00 | 0.00 | 35 | 1011.3 |
| 20260831024653 | 34 | 305 | 6.4 | 9.7 | 0.00 | 0.00 | 0.00 | 34 | 1010.7 |
| 20260831024151 | 34 | 20 | 4.8 | 8.0 | 0.00 | 0.00 | 0.00 | 33 | 1010.7 |
| 20260831023650 | 34 | 307 | 4.8 | 8.0 | 0.00 | 0.00 | 0.00 | 33 | 1010.5 |
| 20260831023149 | 35 | 283 | 3.2 | 3.2 | 0.00 | 0.00 | 0.00 | 32 | 1010.3 |
| 20260831022645 | 35 | 296 | 3.2 | 1.6 | 0.00 | 0.00 | 0.00 | 32 | 1010.1 |
| 20260831022140 | 35 | 311 | 3.2 | 8.0 | 0.00 | 0.00 | 0.00 | 31 | 1010.3 |
| 20260831021639 | 35 | 262 | 3.2 | 3.2 | 0.00 | 0.00 | 0.00 | 31 | 1010.1 |
| 20260831021134 | 35 | 282 | 1.6 | 3.2 | 0.00 | 0.00 | 0.00 | 31 | 1010.2 |
| 20260831020630 | 35 | 283 | 1.6 | 3.2 | 0.00 | 0.00 | 0.00 | 31 | 1010.1 |
| 20260831020125 | 35 | 303 | 3.2 | 3.2 | 0.00 | 0.00 | 0.00 | 31 | 1010.1 |
| 20260831015621 | 35 | 283 | 1.6 | 1.6 | 0.00 | 0.00 | 0.00 | 30 | 1009.9 |
| 20260831015120 | 35 | 318 | 1.6 | 3.2 | 0.00 | 0.00 | 0.00 | 30 | 1010.0 |
| 20260831014615 | 35 | 299 | 4.8 | 4.8 | 0.00 | 0.00 | 0.00 | 30 | 1010.0 |
| 20260831014110 | 35 | 289 | 4.8 | 3.2 | 0.00 | 0.00 | 0.00 | 29 | 1009.7 |
| 20260831013607 | 35 | 289 | 3.2 | 4.8 | 0.00 | 0.00 | 0.00 | 29 | 1009.8 |
| 20260831013106 | 35 | 311 | 4.8 | 8.0 | 0.00 | 0.00 | 0.00 | 29 | 1009.9 |
| 20260831012606 | 35 | 300 | 3.2 | 4.8 | 0.00 | 0.00 | 0.00 | 29 | 1009.9 |
| 20260831012101 | 35 | 311 | 3.2 | 4.8 | 0.00 | 0.00 | 0.00 | 29 | 1009.8 |
| 20260831011600 | 35 | 304 | 3.2 | 3.2 | 0.00 | 0.00 | 0.00 | 29 | 1009.7 |
| 20260831011056 | 35 | 308 | 1.6 | 1.6 | 0.00 | 0.00 | 0.00 | 29 | 1009.8 |
| 20260831010551 | 35 | 259 | 1.6 | 3.2 | 0.00 | 0.00 | 0.00 | 29 | 1009.8 |
| 20260831010048 | 35 | 304 | 3.2 | 3.2 | 0.00 | 0.00 | 0.00 | 29 | 1009.8 |
| 20260831005542 | 36 | 309 | 1.6 | 3.2 | 0.00 | 0.00 | 0.00 | 29 | 1009.6 |
| 20260831005042 | 36 | 300 | 0.0 | 0.0 | 0.00 | 0.00 | 0.00 | 29 | 1009.7 |
| 20260831004538 | 36 | 318 | 4.8 | 8.0 | 0.00 | 0.00 | 0.00 | 28 | 1009.8 |
| 20260831004033 | 36 | 299 | 6.4 | 8.0 | 0.00 | 0.00 | 0.00 | 28 | 1009.5 |
| 20260831003530 | 37 | 302 | 8.0 | 11.3 | 0.00 | 0.00 | 0.00 | 27 | 1009.7 |
| 20260831003025 | 37 | 285 | 1.6 | 1.6 | 0.00 | 0.00 | 0.00 | 27 | 1009.8 |
| 20260831002524 | 37 | 284 | 8.0 | 11.3 | 0.00 | 0.00 | 0.00 | 27 | 1009.7 |
| 20260831002019 | 38 | 238 | 8.0 | 11.3 | 0.00 | 0.00 | 0.00 | 26 | 1009.7 |
| 20260831001515 | 38 | 241 | 4.8 | 4.8 | 0.00 | 0.00 | 0.00 | 26 | 1009.9 |
| 20260831001011 | 38 | 296 | 1.6 | 3.2 | 0.00 | 0.00 | 0.00 | 26 | 1009.7 |
| 20260831000507 | 38 | 301 | 1.6 | 1.6 | 0.00 | 0.00 | 0.00 | 26 | 1009.9 |
| 20260831000006 | 38 | 294 | 3.2 | 3.2 | 0.00 | 0.00 | 0.00 | 26 | 1009.7 |
| 20260830235501 | 38 | 320 | 8.0 | 9.7 | 0.00 | 0.00 | 0.00 | 26 | 1009.8 |
| 20260830234955 | 38 | 289 | 6.4 | 8.0 | 0.00 | 0.00 | 0.00 | 26 | 1009.7 |
| 20260830234450 | 38 | 12 | 1.6 | 1.6 | 0.00 | 0.00 | 0.00 | 26 | 1009.9 |
| 20260830233946 | 38 | 304 | 4.8 | 8.0 | 0.00 | 0.00 | 0.00 | 26 | 1009.7 |
| 20260830233441 | 38 | 339 | 1.6 | 1.6 | 0.00 | 0.00 | 0.00 | 26 | 1009.7 |
| 20260830232937 | 38 | 284 | 4.8 | 4.8 | 0.00 | 0.00 | 0.00 | 26 | 1009.9 |
| 20260830232433 | 38 | 280 | 4.8 | 3.2 | 0.00 | 0.00 | 0.00 | 26 | 1009.9 |
| 20260830231929 | 38 | 355 | 3.2 | 3.2 | 0.00 | 0.00 | 0.00 | 26 | 1010.0 |
| 20260830231424 | 38 | 314 | 6.4 | 8.0 | 0.00 | 0.00 | 0.00 | 26 | 1010.0 |
| 20260830230923 | 38 | 265 | 3.2 | 4.8 | 0.00 | 0.00 | 0.00 | 26 | 1010.1 |
| 20260830230419 | 38 | 281 | 4.8 | 4.8 | 0.00 | 0.00 | 0.00 | 26 | 1010.2 |
| 20260830225918 | 38 | 297 | 3.2 | 3.2 | 0.00 | 0.00 | 0.00 | 27 | 1010.3 |
| 20260830225414 | 39 | 301 | 4.8 | 3.2 | 0.00 | 0.00 | 0.00 | 25 | 1010.3 |
| 20260830224908 | 38 | 245 | 0.0 | 0.0 | 0.00 | 0.00 | 0.00 | 25 | 1010.6 |
| 20260830224407 | 38 | 277 | 3.2 | 1.6 | 0.00 | 0.00 | 0.00 | 25 | 1010.4 |
| 20260830223904 | 38 | 281 | 3.2 | 3.2 | 0.00 | 0.00 | 0.00 | 27 | 1010.7 |
| 20260830223400 | 38 | 333 | 4.8 | 8.0 | 0.00 | 0.00 | 0.00 | 26 | 1010.7 |
| 20260830222859 | 38 | 287 | 9.7 | 11.3 | 0.00 | 0.00 | 0.00 | 25 | 1011.1 |
| 20260830222355 | 38 | 303 | 4.8 | 8.0 | 0.00 | 0.00 | 0.00 | 26 | 1010.7 |
| 20260830221850 | 38 | 279 | 0.0 | 0.0 | 0.00 | 0.00 | 0.00 | 26 | 1011.1 |
| 20260830221347 | 38 | 7 | 4.8 | 4.8 | 0.00 | 0.00 | 0.00 | 26 | 1010.9 |
| 20260830220842 | 38 | 300 | 4.8 | 4.8 | 0.00 | 0.00 | 0.00 | 27 | 1011.4 |
| 20260830220342 | 38 | 271 | 4.8 | 4.8 | 0.00 | 0.00 | 0.00 | 27 | 1011.4 |
| 20260830215839 | 37 | 296 | 8.0 | 9.7 | 0.00 | 0.00 | 0.00 | 27 | 1011.4 |
| 20260830215339 | 37 | 270 | 3.2 | 3.2 | 0.00 | 0.00 | 0.00 | 28 | 1011.3 |
| 20260830214834 | 37 | 206 | 1.6 | 1.6 | 0.00 | 0.00 | 0.00 | 28 | 1011.5 |
| 20260830214330 | 37 | 292 | 4.8 | 8.0 | 0.00 | 0.00 | 0.00 | 28 | 1011.8 |
| 20260830213829 | 38 | 313 | 3.2 | 3.2 | 0.00 | 0.00 | 0.00 | 27 | 1011.6 |
| 20260830213324 | 38 | 274 | 6.4 | 8.0 | 0.00 | 0.00 | 0.00 | 27 | 1011.7 |
| 20260830212820 | 38 | 190 | 0.0 | 0.0 | 0.00 | 0.00 | 0.00 | 26 | 1011.8 |
| 20260830212316 | 38 | 287 | 4.8 | 4.8 | 0.00 | 0.00 | 0.00 | 26 | 1011.9 |
| 20260830211814 | 38 | 276 | 6.4 | 8.0 | 0.00 | 0.00 | 0.00 | 26 | 1011.8 |
| 20260830211309 | 38 | 354 | 4.8 | 4.8 | 0.00 | 0.00 | 0.00 | 26 | 1011.9 |
| 20260830210805 | 38 | 231 | 3.2 | 3.2 | 0.00 | 0.00 | 0.00 | 26 | 1012.0 |
| 20260830210304 | 38 | 307 | 1.6 | 1.6 | 0.00 | 0.00 | 0.00 | 26 | 1012.4 |
| 20260830205802 | 37 | 317 | 3.2 | 4.8 | 0.00 | 0.00 | 0.00 | 26 | 1012.4 |
| 20260830205305 | 37 | 140 | 1.6 | 3.2 | 0.00 | 0.00 | 0.00 | 26 | 1012.5 |
| 20260830204757 | 38 | 208 | 1.6 | 1.6 | 0.00 | 0.00 | 0.00 | 26 | 1012.7 |
| 20260830204256 | 38 | 282 | 4.8 | 4.8 | 0.00 | 0.00 | 0.00 | 26 | 1012.8 |
| 20260830203752 | 37 | 46 | 3.2 | 3.2 | 0.00 | 0.00 | 0.00 | 26 | 1012.9 |
| 20260830203248 | 37 | 61 | 1.6 | 1.6 | 0.00 | 0.00 | 0.00 | 26 | 1013.1 |
| 20260830202747 | 37 | 170 | 1.6 | 1.6 | 0.00 | 0.00 | 0.00 | 27 | 1013.0 |
| 20260830202243 | 37 | 266 | 3.2 | 3.2 | 0.00 | 0.00 | 0.00 | 27 | 1013.4 |
| 20260830201742 | 37 | 255 | 3.2 | 3.2 | 0.00 | 0.00 | 0.00 | 27 | 1013.3 |
| 20260830201237 | 37 | 352 | 4.8 | 8.0 | 0.00 | 0.00 | 0.00 | 28 | 1013.5 |
| 20260830200733 | 37 | 58 | 3.2 | 3.2 | 0.00 | 0.00 | 0.00 | 27 | 1013.4 |
| 20260830200232 | 37 | 289 | 4.8 | 4.8 | 0.00 | 0.00 | 0.00 | 28 | 1013.5 |
| 20260830195727 | 37 | 277 | 4.8 | 4.8 | 0.00 | 0.00 | 0.00 | 28 | 1013.5 |
| 20260830195226 | 37 | 243 | 4.8 | 3.2 | 0.00 | 0.00 | 0.00 | 29 | 1013.9 |
| 20260830194724 | 36 | 39 | 3.2 | 3.2 | 0.00 | 0.00 | 0.00 | 29 | 1013.6 |
| 20260830194219 | 36 | 303 | 3.2 | 4.8 | 0.00 | 0.00 | 0.00 | 29 | 1013.5 |
| 20260830193714 | 36 | 235 | 6.4 | 8.0 | 0.00 | 0.00 | 0.00 | 30 | 1014.1 |